Miscellaneous Local Product
Issued by NWS Hastings, NE

Home | Current Version | Previous Version | Text Only | Print | Product List | Glossary Off
Versions: 1 2 3 4 5 6 7 8 9 10 11 12 13 14 15 16 17 18 19 20 21 22 23 24 25 26 27 28 29 30 31 32 33 34 35 36 37 38 39 40 41 42 43 44 45 46 47 48 49 50

721
AXUS43 KGID 280402
MISGRI

GID CWA HOURLY WEATHER ROUNDUP
NATIONAL WEATHER SERVICE HASTINGS NE
1100 PM CDT FRI MAY 27 2016

NOTE: "FAIR" INDICATES FEW OR NO CLOUDS BELOW 12,000 FEET WITH NO
SIGNIFICANT WEATHER AND/OR OBSTRUCTIONS TO VISIBILITY.

...SOUTH CENTRAL NEBRASKA...

CITY           SKY/WX    TMP DP  RH WIND       PRES   REMARKS
GRAND ISLAND   MOCLDY    59  55  87 E18G29    29.73R
HASTINGS       MOCLDY    59  53  80 E14       29.69R
KEARNEY        CLOUDY    61  55  82 NE13      29.73S
ORD            RAIN      56  53  90 E7        29.77S FOG
YORK           LGT RAIN  59  57  94 NW7       29.78F
AURORA         LGT RAIN  60  58  94 E15       29.76F
LEXINGTON      CLOUDY    60  54  80 NW14      29.75S
HOLDREGE       LGT RAIN  62  59  90 NE10      29.72S
HEBRON         CLOUDY    58  57  98 SW3G9     29.76R

...NEBRASKA PANHANDLE...

CITY           SKY/WX    TMP DP  RH WIND       PRES   REMARKS
CHADRON        PTCLDY    47  43  86 W6        29.88R
ALLIANCE       CLEAR     46  43  89 W7        29.89R
SCOTTSBLUFF    CLOUDY    50  44  80 W6        29.90R
SIDNEY         NOT AVBL

...WESTERN AND NORTH CENTRAL NEBRASKA...

CITY           SKY/WX    TMP DP  RH WIND       PRES   REMARKS
VALENTINE      CLOUDY    57  49  74 N3        29.83S
AINSWORTH      CLOUDY    58  52  82 NW8       29.82R
ONEILL         CLOUDY    64  60  86 N9        29.78R
BROKEN BOW     CLOUDY    62  56  80 N8        29.77R THUNDER
IMPERIAL       CLEAR     51  47  86 NW7       29.84R
NORTH PLATTE   CLOUDY    54  51  90 N3        29.80S
MCCOOK         PTCLDY    56  50  80 N10       29.77S

...EASTERN NEBRASKA...

CITY           SKY/WX    TMP DP  RH WIND       PRES   REMARKS
NORFOLK        RAIN      58  56  93 W8        29.77R FOG
SO SIOUX CITY  TSTM      67  62  84 SW9       29.74R
TEKAMAH        LGT RAIN  68  62  81 S35G41    29.74R
COLUMBUS       CLOUDY    57  52  82 SW5       29.80R
ALBION         LGT RAIN  58  53  83 E10       29.76F
OMAHA EPPLEY   TSTM      64  58  80 SW12G22   29.77R
MILLARD        RAIN      62  59  90 SW6       29.76R
LINCOLN        LGT RAIN  61  57  87 N12       29.76S
NEBRASKA CITY  CLOUDY    60  60 100 NW12      29.76F
BEATRICE       LGT RAIN  59  57  94 N10       29.73F
FALLS CITY     CLOUDY    62  59  90 N7        29.74F

...NORTHERN KANSAS...

CITY           SKY/WX    TMP DP  RH WIND       PRES   REMARKS
GOODLAND       CLOUDY    48  47  96 W8        29.84R
HILL CITY      CLOUDY    61  56  83 NW16G23   29.74R
NORTON         RAIN      57  50  77 NW26G36   29.74R
PHILLIPSBURG   CLOUDY    63  63 100 CALM      29.72R THUNDER
SMITH CENTER   TSTM      57  54  88 SE20      29.75R
BELOIT         CLOUDY    61  55  82 W15G21    29.78R
HAYS           CLOUDY    55  48  76 NW14      29.73R
RUSSELL        LGT RAIN  57  54  89 NE12      29.74R
CONCORDIA      CLOUDY    60  55  83 NE5       29.73R
SALINA         CLOUDY    62  54  74 CALM      29.71R
TOPEKA         LGT RAIN  61  58  90 E7        29.75R



USA.gov is the U.S. government's official web portal to all federal, state and local government web resources and services.